Estación de Odessa
Ultimos registro cada 15 minutos 42
| N° | Estación | Fecha / Hora | Temperatura | Humedad | Lluvia | Velocidad | Dirección | Radiación | Presion |
| 42 | Odessa | 07-05-2026 11:00 | 9,1 | 93 | 0 | 0,9 | 280 | 281 | 1028,9 |
| 41 | Odessa | 07-05-2026 10:45 | 8,7 | 95 | 0 | 1,8 | 262 | 211 | 1029,2 |
| 40 | Odessa | 07-05-2026 10:30 | 8,2 | 95 | 0 | 0 | 261 | 260 | 1029,1 |
| 39 | Odessa | 07-05-2026 10:15 | 7,9 | 95 | 0 | 0,4 | 109 | 118 | 1029,1 |
| 38 | Odessa | 07-05-2026 10:00 | 7,9 | 96 | 0 | 0 | 193 | 130 | 1029,1 |
| 37 | Odessa | 07-05-2026 09:45 | 7,6 | 95 | 0 | 0 | 218 | 142 | 1028,9 |
| 36 | Odessa | 07-05-2026 09:30 | 7,4 | 95 | 0 | 1,8 | 215 | 137 | 1029,2 |
| 35 | Odessa | 07-05-2026 09:15 | 7,4 | 95 | 0 | 1,3 | 259 | 63 | 1029 |
| 34 | Odessa | 07-05-2026 09:00 | 7,2 | 95 | 0 | 0 | 249 | 74 | 1028,7 |
| 33 | Odessa | 07-05-2026 08:45 | 7,1 | 95 | 0 | 0,9 | 222 | 81 | 1028,7 |
| 32 | Odessa | 07-05-2026 08:30 | 7,1 | 95 | 0 | 0,4 | 231 | 49 | 1028,4 |
| 31 | Odessa | 07-05-2026 08:15 | 7,1 | 95 | 0 | 0 | 253 | 25 | 1028,3 |
| 30 | Odessa | 07-05-2026 08:00 | 7,2 | 94 | 0 | 1,3 | 249 | 12 | 1028,3 |
| 29 | Odessa | 07-05-2026 07:45 | 7,3 | 94 | 0 | 0,9 | 233 | 7 | 1028 |
| 28 | Odessa | 07-05-2026 07:30 | 7,4 | 94 | 0 | 0 | 246 | 0 | 1027,9 |
| 27 | Odessa | 07-05-2026 07:15 | 7,6 | 94 | 0 | 0 | 245 | 0 | 1027,8 |
| 26 | Odessa | 07-05-2026 07:00 | 7,6 | 94 | 0 | 0,4 | 220 | 0 | 1027,7 |
| 25 | Odessa | 07-05-2026 06:45 | 7,7 | 94 | 0 | 0,9 | 187 | 0 | 1027,5 |
| 24 | Odessa | 07-05-2026 06:30 | 7,7 | 94 | 0 | 0 | 195 | 0 | 1027,5 |
| 23 | Odessa | 07-05-2026 06:15 | 7,7 | 94 | 0 | 1,3 | 260 | 0 | 1027,6 |
| 22 | Odessa | 07-05-2026 06:00 | 7,8 | 94 | 0 | 1,8 | 263 | 0 | 1027,3 |
| 21 | Odessa | 07-05-2026 05:45 | 7,8 | 93 | 0 | 0,4 | 223 | 0 | 1027,2 |
| 20 | Odessa | 07-05-2026 05:30 | 7,9 | 93 | 0 | 0,9 | 207 | 0 | 1026,9 |
| 19 | Odessa | 07-05-2026 05:15 | 8 | 93 | 0 | 0,9 | 211 | 0 | 1026,5 |
| 18 | Odessa | 07-05-2026 05:00 | 8 | 93 | 0 | 0,4 | 247 | 0 | 1026,3 |
| 17 | Odessa | 07-05-2026 04:00 | 8,4 | 93 | 0 | 1,3 | 212 | 0 | 1025,9 |
| 16 | Odessa | 07-05-2026 03:45 | 8,4 | 93 | 0 | 0,4 | 243 | 0 | 1025,6 |
| 15 | Odessa | 07-05-2026 03:30 | 8,4 | 93 | 0 | 1,3 | 235 | 0 | 1025,8 |
| 14 | Odessa | 07-05-2026 03:15 | 8,4 | 93 | 0 | 0,9 | 214 | 0 | 1025,8 |
| 13 | Odessa | 07-05-2026 03:00 | 8,3 | 93 | 0 | 0 | 252 | 0 | 1025,7 |
| 12 | Odessa | 07-05-2026 02:45 | 8,3 | 93 | 0 | 0 | 238 | 0 | 1025,7 |
| 11 | Odessa | 07-05-2026 02:30 | 8,4 | 92 | 0 | 0,4 | 271 | 0 | 1025,7 |
| 10 | Odessa | 07-05-2026 02:15 | 8,6 | 92 | 0 | 0,4 | 223 | 0 | 1025,6 |
| 9 | Odessa | 07-05-2026 02:00 | 8,6 | 92 | 0 | 0 | 231 | 0 | 1025,4 |
| 8 | Odessa | 07-05-2026 01:45 | 8,6 | 92 | 0 | 0,4 | 139 | 0 | 1025,6 |
| 7 | Odessa | 07-05-2026 01:30 | 8,7 | 91 | 0 | 0 | 219 | 0 | 1025,2 |
| 6 | Odessa | 07-05-2026 01:15 | 8,9 | 91 | 0 | 0 | 204 | 0 | 1025 |
| 5 | Odessa | 07-05-2026 01:00 | 9,2 | 91 | 0 | 0,9 | 240 | 0 | 1024,9 |
| 4 | Odessa | 07-05-2026 00:45 | 9,4 | 90 | 0 | 1,3 | 220 | 0 | 1024,8 |
| 3 | Odessa | 07-05-2026 00:30 | 9,7 | 90 | 0 | 0 | 210 | 0 | 1024,9 |
| 2 | Odessa | 07-05-2026 00:15 | 9,8 | 90 | 0 | 0 | 235 | 0 | 1025 |
| 1 | Odessa | 07-05-2026 00:00 | 9,8 | 90 | 0 | 0 | 245 | 0 | 1024,5 |